CW9688 Weather Reports


time (UTC)temp
C
wind
direction
speed
KPH
gust
KPH
rain 1hr
cm
rain 24hr
cm
rain mn
cm
humidity
%
barometer
mb
20260509114304 8 197 1.6 3.2 0.00 0.00 0.00 71 1007.5
20260509113805 8 197 0.0 1.6 0.00 0.00 0.00 70 1007.5
20260509113305 8 197 3.2 4.8 0.00 0.00 0.00 71 1007.5
20260509112805 8 197 3.2 4.8 0.00 0.00 0.00 73 1007.5
20260509111805 8 197 3.2 4.8 0.00 0.00 0.00 73 1007.5
20260509110805 7 82 3.2 4.8 0.00 0.00 0.00 74 1007.5
20260509105306 8 70 3.2 4.8 0.00 0.00 0.00 73 1007.5
20260509104304 8 206 1.6 3.2 0.00 0.00 0.00 72 1007.5
20260509100805 8 211 3.2 4.8 0.00 0.00 0.00 74 1007.5
20260509100305 8 357 3.2 4.8 0.00 0.00 0.00 74 1007.5
20260509093804 10 184 1.6 3.2 0.00 0.00 0.00 69 1007.5
20260509093305 10 184 0.0 3.2 0.00 0.00 0.00 69 1007.5
20260509091804 10 184 3.2 4.8 0.00 0.00 0.00 67 1007.5
20260509091305 10 223 3.2 4.8 0.00 0.00 0.00 67 1007.5
20260509090304 11 243 1.6 3.2 0.00 0.00 0.00 66 1007.5
20260509082306 11 226 1.6 4.8 0.00 0.00 0.00 63 1007.5
20260509081304 11 265 3.2 4.8 0.00 0.00 0.00 62 1007.5
20260509074805 13 240 4.8 4.8 0.00 0.00 0.00 56 1007.5
20260509074305 13 213 4.8 9.7 0.00 0.00 0.00 56 1007.5
20260509073805 13 237 3.2 9.7 0.00 0.00 0.00 55 1007.5
20260509073304 13 212 8.0 14.5 0.00 0.00 0.00 55 1007.5
20260509072805 13 218 6.4 9.7 0.00 0.00 0.00 55 1007.5
20260509070805 13 184 9.7 22.5 0.00 0.00 0.00 54 1007.5
20260509070304 13 183 11.3 19.3 0.00 0.00 0.00 54 1007.5
20260509065306 13 175 11.3 16.1 0.00 0.00 0.00 55 1007.5
20260509064804 13 184 11.3 19.3 0.00 0.00 0.00 55 1007.5
20260509063304 13 198 9.7 16.1 0.00 0.00 0.00 54 1007.5
20260509061804 13 185 8.0 12.9 0.00 0.00 0.00 54 1007.5
20260509061304 13 175 4.8 9.7 0.00 0.00 0.00 54 1007.5
20260509060305 13 178 4.8 11.3 0.00 0.00 0.00 54 1007.5
20260509055804 13 164 3.2 8.0 0.00 0.00 0.00 54 1007.5
20260509055306 13 177 4.8 9.7 0.00 0.03 0.00 54 1007.5
20260509054804 13 163 3.2 9.7 0.00 0.03 0.00 53 1007.5
20260509054304 13 174 4.8 11.3 0.00 0.03 0.00 53 1007.5
20260509053804 13 186 4.8 11.3 0.00 0.03 0.00 53 1007.5
20260509052805 13 179 6.4 11.3 0.00 0.03 0.00 53 1007.5
20260509052307 13 177 8.0 11.3 0.00 0.03 0.00 52 1007.5
20260509051305 13 170 4.8 12.9 0.00 0.03 0.00 52 1007.5
20260509050804 13 159 4.8 9.7 0.00 0.03 0.00 51 1007.5
20260509045306 13 170 4.8 11.3 0.00 0.03 0.00 52 1007.5
20260509044805 13 164 8.0 9.7 0.00 0.03 0.00 53 1007.5
20260509043304 13 135 4.8 8.0 0.00 0.03 0.00 53 1007.5
20260509042804 13 133 1.6 4.8 0.00 0.03 0.00 53 1007.5
20260509042307 13 143 1.6 4.8 0.00 0.03 0.00 53 1007.5
20260509041804 13 173 3.2 4.8 0.00 0.03 0.00 52 1007.5
20260509041305 13 160 3.2 9.7 0.00 0.03 0.00 51 1007.5
20260509035804 14 171 3.2 8.0 0.00 0.03 0.00 51 1007.5
20260509033304 14 173 4.8 11.3 0.00 0.03 0.00 50 1007.5
20260509031804 15 145 4.8 9.7 0.00 0.03 0.00 48 1007.5
20260509030804 14 131 6.4 9.7 0.00 0.03 0.00 49 1007.5
20260509025306 15 108 1.6 4.8 0.00 0.03 0.00 46 1007.5
20260509022306 16 81 3.2 4.8 0.00 0.03 0.00 42 1007.5
20260509021804 16 86 1.6 8.0 0.00 0.03 0.00 42 1007.5
20260509020304 17 81 4.8 9.7 0.00 0.03 0.00 41 1007.5
20260509015804 17 98 8.0 11.3 0.00 0.03 0.00 40 1007.5
20260509015306 17 95 4.8 8.0 0.00 0.03 0.00 40 1007.5
20260509014804 17 72 3.2 12.9 0.00 0.03 0.00 39 1007.5
20260509013804 18 81 6.4 9.7 0.00 0.03 0.00 38 1007.5
20260509011804 18 82 8.0 11.3 0.00 0.03 0.00 37 1007.5
20260509011304 18 61 4.8 12.9 0.00 0.03 0.00 36 1007.5
20260509010304 19 53 8.0 11.3 0.00 0.03 0.00 36 1007.5
20260509005805 19 69 6.4 11.3 0.00 0.03 0.00 36 1007.5
20260509004304 20 52 8.0 19.3 0.00 0.03 0.00 36 1008.9
20260509003804 20 54 3.2 8.0 0.00 0.03 0.00 35 1008.9
20260509003304 20 165 4.8 11.3 0.00 0.03 0.00 35 1008.9
20260509002804 20 113 8.0 11.3 0.00 0.03 0.00 36 1008.9
20260509001804 20 80 9.7 19.3 0.00 0.03 0.00 36 1008.9
20260509001304 20 97 14.5 20.9 0.00 0.03 0.00 35 1008.9
20260509000305 20 66 4.8 12.9 0.00 0.03 0.00 35 1008.9
20260508234305 20 60 9.7 16.1 0.00 0.03 0.00 35 1008.9
20260508232804 20 58 11.3 19.3 0.00 0.03 0.00 37 1008.9
20260508232307 20 72 3.2 12.9 0.00 0.03 0.00 36 1008.9
20260508231804 20 56 11.3 19.3 0.00 0.03 0.00 36 1008.9
20260508225306 20 70 6.4 11.3 0.00 0.03 0.00 36 1008.9
20260508224804 20 67 8.0 16.1 0.00 0.03 0.00 39 1008.9
20260508224304 20 42 8.0 19.3 0.00 0.03 0.00 36 1008.9
20260508223804 20 13 9.7 16.1 0.00 0.03 0.00 36 1008.9
20260508223305 20 88 9.7 19.3 0.00 0.03 0.00 36 1008.9
20260508222805 20 7 4.8 16.1 0.00 0.03 0.00 36 1008.9
20260508221804 20 133 4.8 9.7 0.00 0.03 0.00 37 1008.9
20260508220804 20 94 12.9 20.9 0.00 0.03 0.00 37 1008.9
20260508220304 20 87 8.0 14.5 0.00 0.03 0.00 36 1008.9
20260508215804 21 62 11.3 19.3 0.00 0.03 0.00 36 1008.9
20260508215306 21 1 8.0 14.5 0.00 0.03 0.00 35 1008.9
20260508214304 20 335 4.8 9.7 0.00 0.03 0.00 37 1008.9
20260508212804 21 344 8.0 16.1 0.00 0.03 0.00 37 1008.9
20260508211304 21 8 6.4 12.9 0.00 0.03 0.00 38 1008.9
20260508210804 20 346 8.0 14.5 0.00 0.03 0.00 37 1008.9
20260508204804 20 0 6.4 16.1 0.00 0.03 0.00 37 1008.9
20260508204304 20 4 8.0 12.9 0.00 0.03 0.00 40 1008.9
20260508202805 20 2 4.8 14.5 0.00 0.03 0.00 39 1009.2
20260508202307 19 48 9.7 19.3 0.00 0.03 0.00 39 1009.2
20260508201804 20 29 3.2 14.5 0.00 0.03 0.00 39 1009.2
20260508201304 19 342 9.7 14.5 0.00 0.03 0.00 39 1009.2
20260508195306 18 42 8.0 11.3 0.00 0.03 0.00 39 1009.2
20260508194303 19 35 8.0 14.5 0.00 0.03 0.00 39 1009.2
20260508193304 19 329 8.0 16.1 0.00 0.03 0.00 41 1009.2
20260508192306 18 156 4.8 11.3 0.00 0.03 0.00 42 1009.2
20260508190804 18 0 12.9 19.3 0.00 0.03 0.00 45 1009.2
20260508184804 18 52 9.7 16.1 0.00 0.03 0.00 44 1009.2
20260508183804 17 0 9.7 19.3 0.00 0.03 0.00 47 1009.2
20260508183304 16 38 4.8 19.3 0.00 0.03 0.00 47 1009.2
20260508182804 17 34 8.0 19.3 0.00 0.03 0.00 44 1009.2
20260508182306 17 32 12.9 19.3 0.00 0.03 0.00 46 1009.2
20260508181304 16 52 11.3 16.1 0.00 0.03 0.00 46 1009.2
20260508180304 17 298 9.7 19.3 0.00 0.03 0.00 48 1009.2
20260508175804 16 6 9.7 19.3 0.00 0.03 0.00 46 1009.2
20260508175306 16 13 9.7 16.1 0.00 0.03 0.00 48 1009.2
20260508174804 16 5 14.5 20.9 0.00 0.03 0.00 47 1009.2
20260508172804 16 7 9.7 19.3 0.00 0.03 0.00 50 1009.2
20260508171804 15 12 16.1 22.5 0.00 0.03 0.00 49 1009.2
20260508164804 15 14 8.0 19.3 0.00 0.03 0.00 51 1009.2
20260508163804 15 67 9.7 19.3 0.00 0.03 0.00 51 1009.2
20260508162306 15 97 6.4 14.5 0.00 0.03 0.00 51 1009.2
20260508161804 15 86 8.0 19.3 0.00 0.03 0.00 51 1009.2
20260508155804 13 58 8.0 14.5 0.00 0.03 0.00 56 1009.2
20260508154305 13 194 4.8 11.3 0.00 0.03 0.00 55 1009.2
20260508153804 13 152 4.8 11.3 0.00 0.03 0.00 57 1009.2
20260508153304 13 173 1.6 8.0 0.00 0.03 0.00 59 1009.2
20260508152306 12 157 3.2 8.0 0.00 0.03 0.00 62 1009.2
20260508151304 13 177 8.0 11.3 0.00 0.03 0.00 63 1009.2
20260508144804 12 211 6.4 11.3 0.00 0.03 0.00 66 1009.2
20260508144304 11 195 6.4 9.7 0.00 0.03 0.00 69 1009.2
20260508143804 11 179 8.0 11.3 0.00 0.03 0.00 72 1009.2
20260508143304 11 195 8.0 9.7 0.00 0.03 0.00 72 1009.2
20260508142804 10 172 8.0 14.5 0.00 0.03 0.00 74 1009.2
20260508141804 10 191 8.0 16.1 0.00 0.03 0.00 77 1009.2
20260508141304 10 185 4.8 14.5 0.00 0.03 0.00 79 1009.2
20260508140804 10 207 4.8 11.3 0.00 0.03 0.00 80 1009.2
20260508140304 10 203 8.0 16.1 0.00 0.03 0.00 80 1009.2
20260508135804 9 209 8.0 12.9 0.00 0.03 0.00 84 1009.2
20260508135306 8 190 4.8 11.3 0.00 0.03 0.00 84 1009.2
20260508134304 8 219 3.2 8.0 0.00 0.03 0.00 85 1009.2
20260508132306 7 184 0.0 1.6 0.00 0.03 0.00 86 1009.2
20260508131804 7 184 1.6 4.8 0.00 0.03 0.00 87 1009.2
20260508125804 7 183 3.2 4.8 0.00 0.03 0.00 88 1009.2
20260508124304 7 295 1.6 4.8 0.00 0.03 0.00 90 1009.2
20260508123804 7 0 3.2 4.8 0.00 0.03 0.00 90 1009.2
20260508121804 7 282 6.4 9.7 0.00 0.03 0.00 91 1009.2
20260508121304 6 340 4.8 8.0 0.00 0.03 0.00 93 1009.2
20260508120304 6 43 0.0 3.2 0.00 0.03 0.00 93 1009.2